Temperature
16 16 16 16 17 17 18 20 21 21 21 20 20 20 20 19 19 17 15 15 15 15 15 15 16 16 15 15 15 15 15 15 15 15 15 15 15 15 15 15 15 15 15 15 15 15 15 15 15
16 16 16 17 17 17 18 20 20 20 20 19 19 20 20 18 17 16 15 15 15 15 15 15 15 15 15 15 15 15 15 15 15 15 15 15 15 15 15 15 15 15 15 15 15 15 15 15 14
15 15 16 17 17 18 19 19 19 19 19 19 19 19 18 17 16 15 14 14 14 14 15 15 15 15 15 15 15 15 15 15 15 15 15 15 15 15 15 15 15 15 14 14 14 14 14 14 14
15 16 17 17 17 18 19 19 18 19 19 18 18 18 17 16 15 14 14 14 14 14 14 14 14 14 15 14 14 15 15 15 15 15 15 14 15 15 15 15 14 14 14 14 14 14 14 14 14
15 16 16 16 17 18 19 19 18 18 18 18 18 17 16 15 15 14 14 14 14 14 14 14 14 14 14 14 14 14 14 14 14 14 14 14 14 14 14 14 14 14 14 14 14 14 14 14 14
16 17 16 16 17 18 18 18 18 18 18 17 17 17 15 14 14 14 13 13 13 13 13 14 14 14 14 14 14 14 14 14 14 14 14 14 14 14 14 14 14 14 14 14 14 14 14 14 14
15 15 16 16 17 17 18 18 17 17 16 17 16 16 15 14 13 13 13 13 13 13 13 13 13 13 14 14 14 14 14 14 14 14 14 14 14 14 14 14 14 14 14 14 14 14 14 14 14
14 15 16 16 16 16 17 17 16 16 16 16 15 15 14 13 13 13 13 12 12 12 12 13 13 13 13 13 13 13 14 14 14 14 14 14 14 14 14 14 14 14 14 14 14 14 14 13 13
14 14 14 15 15 15 16 15 15 15 15 15 15 14 14 13 13 12 12 12 12 12 12 12 12 13 13 13 13 13 13 13 13 13 13 13 13 13 13 13 13 13 13 13 13 13 13 13 13
14 13 14 15 15 14 14 14 14 14 14 14 14 14 13 13 12 12 12 12 12 12 12 12 12 12 12 13 13 13 13 13 13 13 13 13 13 13 13 13 13 13 13 13 13 13 13 13 12
14 13 14 14 14 14 13 13 13 14 13 14 13 13 12 12 12 11 11 11 11 11 11 11 11 11 12 12 12 12 12 12 12 12 12 12 12 12 13 13 13 13 13 13 13 12 12 12 12
14 14 14 13 13 13 13 13 13 13 13 13 13 12 12 12 11 11 11 11 11 11 11 11 11 11 11 12 12 12 12 12 12 12 12 12 12 12 12 12 12 12 12 12 12 12 12 12 12
13 13 13 13 12 12 12 12 12 12 13 13 13 12 12 12 11 11 11 11 11 11 11 11 11 11 11 11 11 11 12 12 12 12 12 12 12 12 12 12 12 12 12 12 11 11 11 11 11
13 13 12 12 12 12 12 12 12 13 13 13 12 12 12 11 11 11 11 10 10 10 10 10 11 11 11 11 11 11 11 11 11 11 11 11 11 12 11 11 11 11 11 11 11 11 11 11 11
12 12 12 13 13 13 12 12 13 13 13 13 12 12 12 11 11 11 11 10 10 10 10 10 10 10 11 11 11 11 11 11 11 11 11 11 11 11 11 11 11 11 11 11 11 11 11 11 11
13 12 12 13 14 13 12 11 13 13 13 13 13 12 12 11 11 11 10 10 10 10 10 10 10 10 10 10 10 11 10 11 11 11 11 11 11 11 11 11 11 11 11 11 11 10 10 10 10
13 12 12 13 13 13 12 11 13 13 13 13 13 12 12 11 11 10 10 10 10 10 10 10 10 10 10 10 10 10 10 10 10 10 10 11 11 11 10 10 10 10 10 10 10 10 10 10 10
12 12 12 12 13 12 11 11 12 13 13 13 12 12 12 11 10 10 10 10 10 10 10 9 9 9 10 10 10 10 10 10 10 10 10 10 10 10 10 10 10 10 10 10 10 10 10 10 10
12 12 12 12 13 12 11 11 12 13 13 12 12 12 11 11 10 10 10 10 10 9 9 9 9 9 9 9 9 10 9 9 10 10 10 10 10 10 10 10 10 10 10 10 9 9 9 9 9
13 12 12 12 12 12 11 11 12 13 12 12 12 11 11 10 10 10 9 9 9 9 9 9 9 9 9 9 9 9 9 9 9 9 9 9 9 9 9 9 9 9 9 9 9 9 9 9 9
12 12 11 11 11 12 11 11 11 12 13 12 12 11 11 10 10 9 9 9 9 9 9 9 9 9 8 9 9 9 8 8 9 9 9 9 9 9 9 9 9 9 9 9 9 9 9 9 9
11 12 11 11 10 9 11 9 11 11 11 11 11 11 10 10 9 9 9 9 9 9 9 8 8 8 8 8 8 8 8 8 8 8 9 9 9 9 9 9 9 9 9 9 9 9 8 8 8
11 11 11 10 10 9 10 9 10 11 11 11 11 11 10 10 9 9 9 9 9 8 8 8 8 8 8 8 8 8 8 8 8 8 8 8 8 9 9 9 8 8 8 8 8 8 8 8 8
11 11 11 10 10 9 10 9 10 10 11 10 11 11 10 9 9 9 8 8 8 8 8 8 8 8 8 8 8 8 8 8 8 8 8 8 8 8 8 8 8 8 8 8 8 8 8 8 8
11 9 9 9 9 10 10 10 9 11 11 11 10 10 10 9 9 8 8 8 8 8 8 8 8 8 8 7 7 7 7 7 7 7 8 8 8 8 8 8 8 8 8 8 8 8 7 7 7
10 10 9 9 9 9 10 9 10 11 11 11 10 10 9 9 8 8 8 8 7 7 7 7 7 7 7 7 7 7 7 7 7 7 7 7 7 8 8 8 8 7 7 7 7 7 7 7 7
10 9 10 9 9 9 10 11 11 11 10 10 10 10 9 8 8 8 8 7 7 7 7 7 7 7 7 7 7 7 7 7 7 7 7 7 7 7 7 7 7 7 7 7 7 7 7 6 7
10 10 9 8 9 9 10 10 9 9 9 9 9 9 9 8 8 7 7 7 7 7 7 7 7 6 6 6 6 6 6 7 7 7 7 7 7 7 7 7 7 7 6 6 6 6 6 6 6
9 10 10 9 9 8 9 9 11 10 9 9 9 9 8 8 8 7 7 7 7 7 7 6 6 6 6 6 6 6 6 6 6 6 6 6 6 6 6 6 6 6 6 6 6 6 5 5 5
10 10 10 8 9 9 8 9 11 10 10 10 9 9 8 8 7 7 7 7 7 6 6 6 6 6 6 6 6 6 6 6 6 6 6 6 6 6 6 6 6 6 6 6 5 5 5 5 5
Wind_Speed
18 14 6 3 3 4 5 2 3 3 3 6 7 5 6 6 5 4 3 6 6 5 7 7 6 6 6 6 7 7 8 8 8 8 8 8 8 8 8 8 8 8 8 8 9 10 10 10 11
14 10 4 3 3 4 3 2 2 4 5 5 4 4 4 3 4 5 4 5 5 5 6 6 5 5 6 7 7 7 8 8 8 8 8 8 8 8 8 8 8 8 8 9 9 10 10 10 10
11 7 3 3 2 2 2 4 5 5 6 5 4 4 4 3 5 4 5 5 4 4 6 6 6 5 5 7 7 8 8 8 8 8 8 8 7 7 7 7 7 7 8 8 9 9 10 9 9
5 3 3 2 3 3 3 4 5 4 3 3 3 2 2 5 4 4 5 4 4 4 5 6 6 5 5 6 7 8 8 8 8 8 8 7 7 7 7 7 7 7 8 8 9 9 9 8 8
4 3 3 3 4 3 3 4 4 4 3 3 3 3 2 4 6 6 4 4 3 3 4 5 6 5 5 6 7 7 7 7 8 8 7 7 7 7 7 7 7 7 8 8 8 8 8 8 7
3 2 2 3 3 1 2 3 4 3 4 4 4 4 1 4 6 5 4 3 3 3 3 4 5 5 5 6 7 7 7 7 7 7 7 7 6 6 7 7 7 7 8 8 8 8 8 7 6
3 2 2 3 2 2 4 5 5 5 5 5 5 4 1 4 5 4 4 3 3 3 3 3 4 5 6 6 7 7 7 7 7 6 6 6 6 7 7 7 7 7 8 7 8 7 7 6 5
4 3 2 2 2 3 4 4 5 5 5 4 4 3 1 2 3 3 3 3 3 2 2 2 3 3 4 6 7 7 7 8 7 7 7 7 8 8 7 7 7 7 7 8 7 7 6 5 4
4 2 1 3 3 4 6 6 5 5 4 4 3 4 3 2 2 2 2 2 2 2 2 2 1 3 3 5 6 7 8 8 8 7 8 7 7 7 6 7 7 7 7 7 7 6 5 5 4
2 1 2 4 5 5 6 7 7 5 6 5 5 4 2 2 2 2 2 2 2 1 1 1 1 1 3 4 5 6 6 7 7 7 7 5 5 7 6 7 7 7 7 7 6 5 4 4 3
2 1 3 4 5 5 6 8 7 7 7 7 6 5 3 3 3 3 3 2 2 1 0 1 2 2 2 2 3 3 5 4 5 6 5 6 6 6 6 6 6 6 6 5 4 4 3 3 4
1 2 3 4 4 4 6 6 7 7 8 7 6 5 4 4 4 3 3 3 2 1 0 1 2 2 2 3 2 3 3 3 3 4 5 5 3 3 3 4 4 4 4 3 3 3 3 4 4
1 2 4 4 4 5 6 7 8 8 8 7 5 4 4 5 4 3 2 2 1 1 1 1 2 1 1 2 2 3 3 3 4 4 4 5 3 2 2 3 3 3 3 2 2 2 3 3 3
2 3 5 5 5 4 6 8 7 7 6 5 4 4 4 4 3 3 2 2 1 1 1 1 1 2 2 2 2 2 3 3 4 3 3 5 4 3 2 2 2 3 3 2 2 3 3 3 3
3 4 5 4 4 2 4 7 4 5 4 5 4 4 3 3 2 2 2 2 2 2 2 2 2 2 3 3 2 3 4 4 3 3 4 4 5 4 3 2 2 2 3 3 3 3 3 2 2
5 5 2 1 1 1 3 7 4 3 4 5 4 3 2 2 1 1 1 1 2 2 3 2 2 2 3 3 3 3 4 3 3 3 4 5 5 5 4 2 2 3 3 2 2 1 2 2 2
3 3 3 3 1 2 3 7 6 5 5 5 4 2 2 1 0 0 1 1 2 3 3 2 2 2 3 3 3 3 3 2 3 3 3 4 5 5 4 3 2 3 2 1 1 1 2 2 2
4 5 5 5 3 4 6 8 7 6 5 4 3 2 1 1 1 1 1 2 2 3 3 3 3 3 3 3 3 3 3 2 3 3 3 4 4 4 4 3 2 3 2 2 1 2 2 2 1
7 7 7 6 4 5 6 8 8 5 4 3 2 3 2 1 0 1 2 2 2 3 4 4 3 3 3 2 2 2 2 2 2 2 3 3 4 4 3 2 2 2 2 2 2 2 2 2 2
7 7 6 5 5 6 7 8 6 3 2 2 2 2 3 2 2 2 2 2 2 3 3 4 4 3 3 2 2 2 2 2 2 2 3 3 3 2 2 2 2 1 2 2 2 2 1 1 1
6 5 5 6 7 5 6 6 3 2 1 2 2 2 3 2 1 1 1 2 2 3 3 3 3 3 3 4 3 3 2 2 1 2 1 1 2 1 2 2 2 1 2 2 2 2 2 2 1
5 4 6 6 5 4 3 4 4 1 2 3 3 3 3 3 2 1 1 2 2 3 4 3 3 3 3 4 4 4 2 2 1 2 1 1 2 1 2 2 2 2 1 2 2 2 1 2 2
4 5 7 7 6 5 4 4 4 0 2 3 3 3 4 3 3 2 1 2 2 3 4 4 4 3 3 3 4 4 3 2 1 2 2 1 1 2 2 2 2 2 2 2 2 1 1 1 2
5 6 7 5 3 4 4 3 4 1 2 3 3 4 4 4 3 3 2 3 3 3 4 4 4 3 2 3 3 3 3 3 2 2 2 2 1 1 2 2 2 2 2 2 2 2 2 2 2
2 3 2 2 2 4 1 2 4 1 3 3 3 4 4 4 4 3 3 3 3 3 3 3 4 3 2 3 3 3 3 3 3 3 3 3 2 1 2 2 2 2 2 3 3 2 3 2 3
3 1 0 2 3 3 2 3 2 2 3 4 3 4 4 4 4 3 2 1 2 3 3 3 3 2 2 2 2 2 3 3 2 2 2 2 2 2 2 2 2 3 3 2 2 2 3 3 3
2 0 1 2 5 4 4 2 1 2 3 4 4 4 4 4 3 3 2 2 1 2 2 3 3 2 2 2 2 1 2 2 3 2 2 2 2 2 3 3 2 3 3 3 3 2 3 3 3
3 2 1 2 3 4 4 3 2 1 1 2 3 3 4 4 3 3 2 1 1 1 2 2 3 2 2 2 2 2 1 2 2 2 2 2 2 2 3 3 3 3 3 3 3 3 3 3 3
4 3 3 3 3 2 4 4 1 2 1 1 1 2 3 3 4 3 2 1 1 1 2 2 2 2 2 2 2 2 1 1 2 2 2 2 2 3 3 4 4 4 4 4 4 4 4 4 4
3 3 3 2 3 3 3 4 2 4 3 2 2 3 3 3 3 3 2 2 1 1 1 1 1 1 2 2 2 2 2 1 1 2 2 2 3 3 3 3 4 4 4 4 5 5 5 5 5
Wind_Direction
313 297 277 261 247 231 238 256 300 336 12 27 15 351 350 358 6 71 102 44 55 91 103 118 123 124 133 137 138 136 135 131 128 127 124 119 116 112 107 102 99 97 96 99 102 97 93 91 88
304 301 278 244 247 241 239 238 313 11 38 28 12 344 338 20 41 76 69 38 48 81 106 112 112 128 135 138 142 141 140 134 130 127 127 126 123 118 112 107 103 99 96 99 99 97 94 91 88
286 276 274 250 243 262 297 16 37 33 46 31 9 355 348 15 37 45 45 30 37 69 101 111 107 125 134 141 149 151 144 137 132 129 127 127 125 122 118 112 106 104 102 103 102 100 95 91 87
296 257 242 259 262 301 315 16 30 22 33 32 0 345 28 35 38 41 35 18 32 58 97 113 117 121 134 142 149 152 147 140 137 134 129 127 126 125 122 113 108 107 107 104 103 102 97 92 89
250 261 234 231 252 276 335 14 18 350 352 352 347 317 346 37 54 52 34 18 19 48 88 123 127 125 136 143 145 145 145 142 138 136 132 127 127 129 124 117 114 110 111 109 108 106 102 97 91
274 253 249 239 245 280 22 10 347 338 334 330 329 307 21 64 53 43 19 7 11 43 88 131 137 137 140 146 144 146 144 142 138 134 132 129 132 131 126 120 116 113 112 112 112 108 106 102 96
310 295 266 289 309 322 359 9 360 345 326 335 348 322 68 55 54 37 11 1 11 46 84 121 135 141 145 144 146 147 144 144 143 138 132 130 127 128 123 121 119 116 112 111 112 111 113 109 101
321 307 273 289 308 322 13 3 354 336 320 345 350 315 329 14 37 25 5 0 359 46 70 103 131 136 137 138 146 146 147 147 146 140 131 122 119 122 122 123 122 121 119 117 116 117 118 119 114
295 279 292 336 345 350 360 347 337 327 316 316 312 304 322 356 2 358 345 344 343 20 57 63 114 139 139 142 147 149 149 148 144 141 138 139 135 127 120 125 128 128 126 126 127 130 134 132 132
317 308 342 1 359 340 333 334 323 313 309 306 314 329 351 355 338 305 299 300 309 333 52 61 49 113 130 139 144 147 144 147 148 150 158 158 122 118 120 124 131 134 132 134 141 148 154 152 144
342 337 337 345 349 335 320 316 313 298 290 299 309 323 335 329 319 284 280 272 266 303 346 72 45 67 103 120 140 133 134 140 138 144 151 124 115 121 125 126 129 136 141 150 162 162 158 143 130
289 312 310 314 329 314 302 303 304 292 286 301 308 308 309 299 287 279 277 268 239 230 245 60 65 71 101 117 124 111 114 115 109 121 125 118 110 115 125 127 144 149 146 151 155 151 133 117 109
282 293 303 298 287 280 288 288 288 281 282 287 292 289 281 281 281 272 267 273 224 215 129 75 94 105 104 104 117 110 110 110 102 103 108 120 122 128 128 122 126 123 127 128 129 105 97 93 95
320 295 282 273 262 263 287 287 278 272 277 278 279 271 258 262 274 279 268 241 203 188 163 119 130 120 104 103 101 109 108 110 106 103 103 119 123 117 116 112 107 97 99 101 99 91 88 86 81
274 267 257 239 240 248 301 291 261 266 277 278 276 273 264 260 256 261 260 215 182 164 159 140 141 125 122 123 107 100 107 115 111 111 112 115 119 119 110 109 108 97 99 90 78 83 83 89 86
242 248 262 238 253 245 271 283 309 315 292 287 285 285 282 263 251 247 260 194 142 132 131 138 136 133 133 129 113 111 111 109 112 119 120 122 127 126 109 112 118 108 94 82 76 73 76 75 80
230 278 293 303 306 307 276 280 300 306 296 295 294 293 290 268 292 215 172 152 135 123 120 116 115 119 128 121 110 110 114 114 117 118 114 125 127 126 119 128 134 129 117 110 125 91 101 89 73
308 307 299 303 319 318 286 281 298 311 306 297 296 297 291 252 229 165 133 133 132 128 126 111 98 98 101 107 104 103 97 85 94 95 101 107 115 125 120 127 140 134 136 139 131 123 109 119 123
300 292 293 304 327 310 284 289 296 299 298 300 314 318 315 339 40 83 86 112 123 125 131 125 116 111 108 113 119 124 124 112 102 102 109 99 100 108 118 124 134 132 153 154 142 134 128 128 108
289 291 300 311 328 309 286 285 284 287 298 288 305 323 339 5 27 31 58 98 129 134 131 133 140 138 127 117 120 128 119 123 132 107 92 94 96 103 128 134 147 145 153 137 134 130 134 152 140
291 297 309 310 316 280 288 284 245 234 346 8 15 15 6 11 43 51 89 118 123 120 128 139 140 134 130 122 109 112 99 97 80 99 101 106 110 112 123 138 142 156 162 160 153 156 152 181 217
294 345 315 309 311 288 277 291 268 242 13 6 4 18 14 29 38 85 126 131 135 124 129 134 129 131 137 129 134 144 144 151 166 152 140 137 128 135 125 136 150 164 167 162 163 160 161 165 199
289 313 290 278 278 285 264 260 274 245 339 358 10 22 32 31 28 55 113 124 120 123 134 137 129 135 151 142 148 150 139 142 135 129 136 146 152 152 154 157 156 171 173 166 160 170 174 184 194
284 286 268 246 257 269 243 229 287 324 341 9 19 23 27 30 32 57 87 100 103 116 126 136 140 142 154 150 153 155 149 143 136 146 162 172 172 169 172 169 160 169 176 174 177 185 190 209 210
300 327 341 322 239 251 191 222 265 340 50 46 26 24 21 25 35 49 71 91 106 117 126 136 139 145 159 161 163 168 162 156 166 184 184 173 176 194 203 182 173 177 180 179 177 188 201 213 216
257 284 44 285 292 305 295 247 248 62 56 54 45 42 37 35 27 33 49 88 116 123 132 139 134 139 153 160 157 166 163 163 177 192 195 183 184 199 202 184 180 179 179 181 180 202 212 213 218
297 204 275 277 288 278 250 211 124 44 57 41 36 39 31 32 25 28 43 58 104 134 144 150 141 144 160 160 149 167 168 169 179 185 199 190 186 192 186 185 186 188 189 190 190 200 210 207 214
268 308 270 243 298 293 282 251 241 248 345 12 23 19 19 23 30 38 40 59 72 131 146 143 146 153 171 171 180 195 184 172 176 175 191 200 196 194 187 194 194 196 200 204 200 203 209 210 217
190 217 235 246 241 268 296 290 59 142 116 75 13 15 23 24 18 17 29 64 76 91 126 138 148 143 178 197 185 185 198 184 178 187 196 200 198 193 196 200 201 203 205 207 208 214 211 216 222
224 225 214 238 266 252 268 274 71 93 80 74 48 31 32 38 24 9 24 37 45 71 129 158 178 179 203 198 186 197 206 192 194 206 205 197 203 202 204 206 210 213 210 209 213 219 220 220 224
Height
1507 1507 1509 1512 1513 1514 1512 1505 1499 1500 1501 1504 1505 1506 1507 1509 1512 1519 1518 1515 1515 1514 1515 1516 1517 1518 1519 1521 1522 1523 1524 1525 1526 1527 1528 1529 1530 1531 1532 1533 1533 1534 1534 1535 1536 1536 1537 1537 1538
1507 1508 1511 1511 1513 1517 1511 1504 1503 1503 1505 1506 1507 1508 1508 1511 1513 1515 1515 1515 1514 1514 1515 1516 1517 1518 1519 1520 1521 1523 1524 1525 1526 1527 1528 1529 1530 1531 1532 1533 1533 1534 1535 1536 1536 1537 1537 1538 1539
1508 1509 1512 1510 1511 1513 1510 1504 1504 1505 1506 1507 1509 1510 1511 1514 1515 1515 1515 1515 1515 1514 1514 1515 1516 1517 1519 1520 1521 1522 1524 1525 1526 1527 1528 1529 1530 1531 1532 1533 1534 1535 1535 1536 1537 1537 1538 1538 1539
1509 1511 1511 1512 1512 1508 1506 1505 1505 1506 1508 1509 1511 1512 1513 1515 1515 1515 1514 1514 1515 1514 1514 1515 1516 1517 1518 1519 1521 1522 1523 1524 1525 1527 1528 1529 1530 1531 1532 1533 1534 1535 1536 1536 1537 1537 1538 1539 1540
1510 1511 1511 1513 1510 1507 1505 1506 1507 1508 1509 1511 1512 1512 1514 1515 1514 1514 1514 1514 1514 1514 1514 1514 1515 1516 1517 1518 1520 1521 1522 1524 1525 1526 1528 1529 1530 1531 1532 1533 1534 1535 1536 1536 1537 1538 1538 1539 1540
1511 1510 1514 1514 1509 1506 1506 1507 1508 1509 1510 1511 1512 1512 1514 1514 1513 1513 1513 1513 1513 1513 1513 1514 1514 1515 1516 1517 1519 1520 1521 1523 1524 1526 1527 1528 1529 1530 1531 1532 1533 1534 1535 1536 1537 1538 1538 1539 1540
1513 1511 1512 1511 1510 1509 1508 1509 1510 1511 1511 1512 1513 1513 1513 1513 1513 1512 1512 1512 1512 1512 1512 1512 1513 1514 1515 1516 1517 1519 1520 1522 1523 1525 1526 1527 1528 1530 1531 1532 1533 1534 1535 1536 1536 1537 1538 1539 1540
1512 1513 1511 1510 1511 1511 1511 1511 1512 1513 1512 1513 1513 1513 1513 1513 1512 1512 1511 1511 1511 1511 1510 1511 1511 1512 1513 1514 1516 1517 1519 1521 1522 1524 1525 1526 1528 1529 1530 1531 1532 1533 1534 1535 1536 1537 1538 1539 1540
1513 1516 1515 1513 1513 1513 1512 1513 1513 1513 1513 1513 1513 1513 1512 1511 1510 1510 1510 1510 1510 1509 1509 1509 1510 1510 1511 1512 1514 1516 1518 1520 1521 1523 1524 1525 1527 1528 1529 1530 1531 1532 1533 1535 1536 1537 1538 1539 1540
1515 1518 1516 1514 1514 1515 1514 1515 1514 1513 1512 1512 1512 1511 1511 1510 1509 1509 1508 1508 1508 1508 1508 1508 1508 1508 1509 1510 1512 1514 1516 1518 1519 1521 1523 1524 1525 1527 1528 1529 1530 1531 1533 1534 1535 1536 1537 1538 1539
1516 1517 1516 1516 1516 1516 1516 1515 1514 1513 1511 1511 1510 1509 1509 1508 1507 1507 1507 1506 1506 1506 1506 1506 1506 1507 1507 1508 1510 1511 1514 1516 1517 1519 1521 1522 1524 1525 1527 1528 1529 1530 1532 1533 1534 1535 1536 1538 1539
1517 1517 1517 1517 1517 1517 1516 1515 1514 1512 1511 1510 1509 1508 1507 1506 1505 1505 1505 1504 1504 1504 1504 1504 1504 1505 1506 1507 1508 1509 1511 1513 1515 1517 1519 1520 1522 1523 1525 1527 1528 1529 1531 1532 1533 1534 1536 1537 1538
1516 1517 1517 1516 1516 1515 1515 1514 1513 1510 1508 1507 1507 1506 1505 1504 1503 1503 1503 1502 1502 1502 1502 1502 1502 1503 1504 1505 1506 1507 1509 1511 1514 1515 1517 1519 1520 1522 1524 1525 1527 1529 1530 1531 1533 1534 1535 1536 1537
1517 1516 1516 1515 1514 1514 1513 1511 1510 1507 1506 1505 1504 1504 1502 1501 1501 1500 1500 1500 1500 1500 1500 1501 1501 1501 1502 1503 1504 1506 1508 1510 1512 1514 1516 1517 1519 1521 1522 1524 1526 1527 1529 1530 1531 1532 1534 1535 1536
1516 1516 1514 1512 1512 1511 1512 1509 1506 1504 1504 1503 1502 1501 1500 1499 1498 1498 1498 1498 1498 1498 1499 1499 1499 1500 1501 1502 1503 1504 1506 1508 1511 1513 1514 1516 1517 1519 1521 1523 1524 1526 1527 1529 1530 1531 1532 1534 1535
1515 1514 1514 1510 1509 1509 1514 1511 1504 1503 1502 1500 1499 1498 1497 1496 1496 1495 1495 1496 1496 1496 1497 1497 1498 1498 1499 1500 1502 1503 1504 1506 1509 1511 1513 1514 1516 1518 1519 1521 1523 1524 1526 1527 1528 1529 1531 1532 1533
1513 1515 1513 1510 1508 1507 1510 1508 1503 1502 1500 1498 1497 1496 1495 1494 1494 1494 1493 1493 1493 1494 1495 1495 1496 1497 1498 1499 1500 1501 1503 1505 1507 1510 1511 1513 1514 1516 1518 1519 1521 1523 1524 1526 1527 1528 1529 1530 1531
1517 1514 1512 1511 1507 1507 1508 1505 1501 1500 1498 1496 1495 1494 1493 1492 1491 1491 1491 1491 1492 1492 1493 1494 1494 1495 1496 1497 1498 1500 1502 1504 1506 1508 1510 1512 1513 1515 1516 1518 1519 1521 1522 1524 1525 1526 1527 1528 1529
1514 1513 1513 1509 1507 1507 1506 1503 1499 1497 1496 1494 1493 1492 1491 1490 1490 1489 1489 1489 1490 1491 1492 1492 1493 1493 1494 1495 1496 1498 1500 1502 1504 1507 1508 1510 1511 1513 1515 1516 1517 1519 1520 1521 1523 1524 1525 1526 1527
1512 1512 1511 1509 1507 1506 1504 1501 1496 1494 1494 1493 1492 1491 1490 1489 1488 1487 1487 1488 1488 1489 1490 1491 1492 1492 1493 1494 1495 1497 1499 1501 1503 1504 1506 1508 1510 1511 1513 1514 1515 1516 1518 1519 1521 1522 1523 1524 1525
1511 1512 1512 1511 1508 1504 1505 1502 1495 1492 1491 1491 1491 1490 1489 1487 1487 1486 1486 1486 1487 1487 1488 1489 1490 1491 1492 1493 1494 1495 1498 1499 1501 1503 1504 1506 1508 1509 1511 1512 1513 1515 1516 1516 1517 1519 1521 1522 1523
1513 1510 1510 1511 1514 1512 1508 1512 1497 1492 1491 1490 1489 1489 1487 1486 1486 1485 1485 1485 1486 1487 1487 1489 1490 1490 1492 1492 1493 1494 1495 1497 1498 1501 1502 1504 1505 1507 1508 1510 1511 1513 1514 1514 1515 1517 1518 1519 1520
1512 1510 1510 1510 1511 1512 1506 1510 1500 1491 1491 1490 1489 1488 1487 1486 1485 1484 1484 1484 1485 1486 1487 1488 1488 1489 1491 1491 1492 1494 1494 1496 1497 1499 1500 1502 1503 1505 1506 1507 1508 1510 1512 1512 1513 1514 1516 1517 1518
1510 1509 1507 1507 1511 1515 1505 1508 1501 1493 1490 1489 1488 1488 1487 1486 1485 1484 1484 1484 1484 1485 1486 1486 1487 1488 1489 1490 1490 1491 1493 1494 1495 1497 1498 1500 1501 1502 1504 1505 1506 1508 1509 1510 1511 1512 1513 1514 1515
1511 1515 1517 1516 1515 1510 1500 1503 1500 1489 1487 1488 1488 1488 1487 1486 1485 1484 1483 1483 1484 1484 1485 1485 1486 1486 1488 1488 1489 1490 1492 1493 1494 1495 1496 1497 1498 1499 1501 1502 1503 1505 1505 1507 1508 1509 1510 1511 1512
1511 1513 1522 1523 1516 1508 1503 1503 1496 1488 1487 1488 1488 1488 1487 1487 1485 1484 1483 1483 1483 1484 1484 1484 1485 1485 1486 1487 1488 1489 1491 1491 1492 1493 1494 1495 1496 1497 1498 1499 1500 1501 1502 1503 1504 1505 1506 1507 1508
1510 1513 1512 1517 1512 1512 1503 1493 1491 1488 1488 1488 1488 1488 1487 1487 1486 1484 1484 1483 1483 1483 1484 1484 1484 1485 1486 1487 1487 1488 1489 1490 1490 1491 1492 1493 1494 1495 1495 1496 1497 1498 1499 1500 1501 1502 1502 1503 1504
1510 1509 1513 1517 1517 1513 1500 1495 1497 1492 1490 1489 1488 1488 1487 1487 1486 1485 1484 1483 1483 1483 1483 1484 1484 1484 1485 1486 1486 1487 1488 1488 1489 1489 1490 1490 1491 1492 1492 1493 1494 1495 1496 1497 1497 1498 1498 1499 1499
1510 1510 1510 1511 1511 1515 1510 1502 1487 1488 1487 1488 1488 1488 1487 1486 1485 1484 1484 1483 1483 1483 1483 1483 1483 1483 1484 1484 1485 1485 1486 1486 1486 1487 1487 1488 1488 1489 1489 1490 1491 1491 1492 1493 1493 1494 1494 1495 1495
1504 1504 1507 1514 1511 1507 1510 1505 1486 1486 1486 1486 1487 1487 1486 1486 1485 1484 1483 1483 1482 1482 1482 1482 1482 1482 1482 1482 1483 1483 1484 1484 1484 1484 1485 1485 1485 1486 1486 1487 1487 1488 1488 1489 1489 1490 1490 1490 1490